Regional Weather Roundup
Issued by NWS Goodland, KS

Home | Current Version | Previous Version | Graphics & Text | Print | Product List | Glossary On
Versions: 1 2 3 4 5 6 7 8 9 10 11 12 13 14 15 16 17 18 19 20 21 22 23 24 25 26 27 28 29 30 31 32 33 34 35 36 37 38 39 40 41 42 43 44 45 46 47 48 49 50
622
ASUS43 KGLD 280108
RWRGLD

GOODLAND FORECAST AREA HOURLY WEATHER ROUNDUP
NATIONAL WEATHER SERVICE GOODLAND KS
700 PM MDT THU JUL 27 2017

...OFFICIAL OBSERVATIONS...

CITY           SKY/WX    TMP DP  RH WIND       PRES   REMARKS
GOODLAND KS    MOSUNNY   80  63  55 SE8       30.08S
HILL CITY KS   CLEAR     84  61  45 E12       30.02S
IMPERIAL NEB   SUNNY     82  60  47 SE7       30.05R
MCCOOK NEB     SUNNY     83  59  44 E13       30.04S
AKRON CO       SUNNY     83  58  42 SE18      30.08F
BURLINGTON CO  SUNNY     79  63  57 SE12      30.11S
LIMON CO       CLOUDY    77  62  59 SE14      30.18R
$$

...UNOFFICIAL OBSERVATIONS...

CITY           SKY/WX    TMP DP  RH WIND       PRES   REMARKS
LENORA KS        N/A     80  32  17 MISG        N/A
NORTON KS      CLEAR     79  55  44 NE9       30.04
SHARON SPRINGS   N/A     79  66  64 S5          N/A
TRENTON NEB      N/A     83  32  16 SE7         N/A
KIT CARSON CO    N/A     78  63  60 MISG        N/A
YUMA CO        FAIR      81  55  41 SE12      30.07F
$$




USA.gov is the U.S. government's official web portal to all federal, state and local government web resources and services.